User: anonymous   Login
Location: Tyler Bend Campground
(35.9875°N, 92.7606°W)
Time: 08:28:42
(UTC-06:00)
Language:

CZ-2C R/B - Orbit

View from above orbital plane
View from above orbital plane
View from above satellite
View from above satellite

Ground track
Ground track

The orbit data is extracted from the following two-line orbital elements,

1 36089U 09061B   16340.13814671  .00000090  00000-0  34098-4 0  9994
2 36089  98.0500 344.5986 0080838 283.5890 123.0319 14.49623051373592
Epoch (UTC): 05 December 2016 03:18:55
Eccentricity: 0.0080838
inclination: 98.0500°
perigee height: 669 km
apogee height: 784 km
right ascension of ascending node: 344.5986°
argument of perigee: 283.5890°
revolutions per day: 14.49623051
mean anomaly at epoch: 123.0319°
orbit number at epoch: 37359

The dashed part of the orbit path shows where the satellite is in the earth's shadow,  

DLR